Location: ?????????
(41.2393°N, 22.9479°E)
Time: 05:10:36
(UTC+00:00)

Cosmos 1975 Rocket - Pass Details

Date: 17 November 2025
Orbit: 598 x 626 km, 82.5° (Epoch: 09 December)

Event Time Altitude Azimuth Distance (km) Brightness Sun altitude
Rises 15:51:04 0° 353° (N) 2,870 6.4 -8.5°
Reaches altitude 10° 15:53:17 10° 355° (N) 1,966 5.5 -8.9°
Maximum altitude 15:57:38 79° 82° (E) 627 3.0 -9.7°
Drops below altitude 10° 16:02:00 10° 169° (S) 1,968 5.7 -10.4°
Sets 16:04:13 0° 171° (S) 2,873 6.6 -10.8°
